Weather History for KMGJ - February, 2014

Change the Weather History Date:

Wednesday, February 5, 2014

  Actual Average (KPOU) Record (KPOU)
Temperature  
Mean Temperature 26 °F 27 °F  
Max Temperature 28 °F 37 °F 64 °F (1991)
Min Temperature 24 °F 16 °F -14 °F (1965)
Degree Days  
Heating Degree Days 39 38  
Month to date heating degree days 192  
Since 1 July heating degree days 3744  
Cooling Degree Days 0 0  
Month to date cooling degree days 0  
Year to date cooling degree days 0  
Moisture  
Dew Point 23 °F    
Average Humidity 86    
Maximum Humidity 92    
Minimum Humidity 66    
Precipitation  
Precipitation 0.85 in 0.09 in 0.95 in (2014)
Month to date precipitation 0.46  
Year to date precipitation 3.54  
Sea Level Pressure  
Sea Level Pressure 29.84 in    
Wind  
Wind Speed 8 mph (NNE)    
Max Wind Speed 16 mph    
Max Gust Speed -    
Visibility 3 miles    
Events Fog , Rain , Snow    
T = Trace of Precipitation, MM = Missing Value Source: NWS Daily Summary

Daily Weather History Graph

Daily Weather History Graph

Search for Another Location

Airport or City:

Trip Planner

Search our weather history database for the weather conditions in past years. The results will help you decide how hot, cold, wet, or windy it might be!

Date:

Astronomy

Feb. 05, 2014 Rise Set
Actual Time 7:04 AM EST 5:18 PM EST
Civil Twilight 6:35 AM EST 5:47 PM EST
Nautical Twilight 6:02 AM EST 6:20 PM EST
Astronomical Twilight 5:30 AM EST 6:52 PM EST
Moon 10:12 AM EST (2/5) No Moon Set
Length of Visible Light 11h 11m
Length of Day
10h 13m
Waxing Crescent, 39% of the Moon is Illuminated
Feb 5
Waxing Crescent
Feb 6
First Quarter
Feb 14
Full
Feb 22
Last Quarter
Mar 1
New

Hourly Weather History & Observations

Time (EST) Temp. Windchill Dew Point Humidity Pressure Visibility Wind Dir Wind Speed Gust Speed Precip Events Conditions
12:54 AM 27.0 °F - 17.1 °F 66% 30.27 in 10.0 mi Calm Calm - N/A   Overcast
1:48 AM 26.6 °F 18.2 °F 17.6 °F 69% 30.21 in 2.5 mi North 8.1 mph - 0.00 in Snow Light Snow
1:49 AM 26.1 °F 17.6 °F 18.0 °F 71% 30.22 in 2.0 mi North 8.1 mph - 0.00 in Snow Light Snow
1:56 AM 26.1 °F 16.8 °F 19.0 °F 75% 30.20 in 1.2 mi North 9.2 mph - 0.00 in Snow Light Snow
2:11 AM 25.0 °F 16.3 °F 19.9 °F 81% 30.18 in 1.0 mi NNE 8.1 mph - 0.00 in Snow Light Snow
2:20 AM 24.1 °F 17.0 °F 19.9 °F 84% 30.19 in 0.8 mi NNE 5.8 mph - 0.01 in Snow Light Snow
2:30 AM 24.1 °F 18.2 °F 21.0 °F 88% 30.19 in 0.5 mi NNE 4.6 mph - 0.04 in Fog , Snow Snow
2:54 AM 24.1 °F 15.2 °F 21.0 °F 88% 30.18 in 0.2 mi NNE 8.1 mph - 0.08 in Fog , Snow Heavy Snow
3:19 AM 24.1 °F 17.0 °F 21.0 °F 88% 30.17 in 0.2 mi NNE 5.8 mph - 0.06 in Fog , Snow Heavy Snow
3:54 AM 24.1 °F 14.4 °F 21.0 °F 88% 30.14 in 0.2 mi NNE 9.2 mph - 0.16 in Fog , Snow Heavy Snow
4:40 AM 24.1 °F 13.1 °F 19.9 °F 84% 30.13 in 0.5 mi North 11.5 mph - 0.08 in Fog , Snow Snow
4:54 AM 24.1 °F 13.1 °F 19.9 °F 84% 30.13 in 0.5 mi NNE 11.5 mph - 0.11 in Fog , Snow Snow
5:54 AM 24.1 °F 14.4 °F 21.0 °F 88% 30.10 in 0.5 mi NNE 9.2 mph - 0.09 in Fog , Snow Snow
6:54 AM 24.1 °F 13.7 °F 19.9 °F 84% 30.06 in 0.8 mi NE 10.4 mph - 0.13 in Snow Light Snow
7:54 AM 24.1 °F 13.1 °F 19.9 °F 84% 29.99 in 0.2 mi NNE 11.5 mph - 0.06 in Fog , Snow Heavy Snow
8:54 AM 24.1 °F 13.1 °F 21.0 °F 88% 29.94 in 0.2 mi NNE 11.5 mph - 0.09 in Fog , Snow Heavy Snow
9:06 AM 24.1 °F 13.1 °F 19.9 °F 84% 29.90 in 0.8 mi NE 11.5 mph - 0.02 in Snow Light Snow
9:09 AM 24.1 °F 12.5 °F 19.9 °F 84% 29.90 in 1.2 mi NNE 12.7 mph - 0.02 in Snow Light Snow
9:15 AM 24.1 °F 13.1 °F 19.9 °F 84% 29.88 in 2.0 mi NNE 11.5 mph - 0.02 in Snow Light Snow
9:25 AM 24.1 °F 13.7 °F 21.0 °F 88% 29.88 in 5.0 mi NNE 10.4 mph - 0.03 in Snow Light Snow
9:35 AM 24.1 °F 13.7 °F 21.0 °F 88% 29.87 in 4.0 mi NNE 10.4 mph - 0.03 in   Overcast
9:54 AM 24.1 °F 11.5 °F 21.0 °F 88% 29.86 in 3.0 mi NNE 15.0 mph - 0.04 in   Overcast
10:12 AM 24.1 °F 12.0 °F 21.0 °F 88% 29.82 in 2.0 mi NNE 13.8 mph - 0.01 in Snow Light Snow
10:37 AM 25.0 °F 12.6 °F 21.0 °F 85% 29.80 in 4.0 mi NNE 15.0 mph - 0.01 in   Overcast
10:54 AM 25.0 °F 12.2 °F 21.0 °F 85% 29.80 in 5.0 mi NNE 16.1 mph - 0.01 in   Overcast
11:24 AM 26.1 °F 13.6 °F 21.9 °F 84% 29.75 in 3.0 mi NNE 16.1 mph - 0.01 in Rain Light Freezing Rain
11:32 AM 26.1 °F 14.5 °F 23.0 °F 88% 29.73 in 2.5 mi NNE 13.8 mph - 0.02 in Rain Light Freezing Rain
11:41 AM 26.1 °F 14.0 °F 21.9 °F 84% 29.71 in 2.0 mi NE 15.0 mph - 0.03 in Snow Light Snow
11:54 AM 26.1 °F 15.0 °F 23.0 °F 88% 29.73 in 1.5 mi NNE 12.7 mph - 0.03 in Snow Light Snow
12:03 PM 26.1 °F 15.6 °F 23.0 °F 88% 29.70 in 0.8 mi NNE 11.5 mph - 0.01 in Snow Light Snow
12:27 PM 27.0 °F 15.6 °F 23.0 °F 85% 29.68 in 1.2 mi NNE 13.8 mph - 0.01 in Snow Light Snow
12:38 PM 27.0 °F 17.3 °F 23.0 °F 85% 29.69 in 2.5 mi NNE 10.4 mph - 0.01 in Snow Light Snow
12:54 PM 27.0 °F 18.7 °F 24.1 °F 89% 29.70 in 2.0 mi NNE 8.1 mph - 0.02 in Snow Light Snow
1:06 PM 28.0 °F 20.0 °F 24.1 °F 85% 29.68 in 1.5 mi NNE 8.1 mph - 0.01 in   Overcast
1:09 PM 28.0 °F 18.6 °F 24.1 °F 85% 29.68 in 1.5 mi NNE 10.4 mph - 0.01 in Rain Light Freezing Rain
1:18 PM 27.0 °F 16.7 °F 24.1 °F 89% 29.68 in 1.5 mi NNE 11.5 mph - 0.02 in Snow Light Snow
1:21 PM 27.0 °F 17.3 °F 24.1 °F 89% 29.66 in 1.5 mi NE 10.4 mph - 0.02 in Snow Light Snow
1:38 PM 28.0 °F 18.6 °F 24.1 °F 85% 29.67 in 2.0 mi NNE 10.4 mph - 0.02 in Snow Light Snow
1:54 PM 28.0 °F 20.0 °F 24.1 °F 85% 29.70 in 3.0 mi NNE 8.1 mph - 0.02 in   Overcast
2:08 PM 28.0 °F 22.8 °F 25.0 °F 88% 29.67 in 2.5 mi NNE 4.6 mph - 0.00 in   Overcast
2:17 PM 28.0 °F 21.7 °F 25.0 °F 88% 29.66 in 2.0 mi NE 5.8 mph - 0.00 in Snow Light Snow
2:24 PM 28.0 °F 22.8 °F 25.0 °F 88% 29.66 in 1.5 mi NE 4.6 mph - 0.00 in Snow Light Snow
2:51 PM 28.4 °F 22.2 °F 24.8 °F 86% 29.66 in 2.5 mi NE 5.8 mph - 0.00 in Snow Light Snow
2:54 PM 28.0 °F 20.8 °F 24.1 °F 85% 29.68 in 2.5 mi NE 6.9 mph - 0.00 in   Overcast
3:01 PM 28.0 °F 21.7 °F 25.0 °F 88% 29.66 in 3.0 mi NNE 5.8 mph - N/A   Overcast
3:54 PM 28.9 °F 21.1 °F 25.0 °F 85% 29.67 in 3.0 mi NNE 8.1 mph - N/A   Overcast
4:07 PM 28.9 °F 21.9 °F 25.0 °F 85% 29.66 in 4.0 mi NNE 6.9 mph - N/A   Overcast
4:22 PM 28.9 °F 22.8 °F 25.0 °F 85% 29.66 in 1.8 mi NNE 5.8 mph - 0.00 in Snow Light Snow
4:35 PM 28.9 °F 21.1 °F 25.0 °F 85% 29.66 in 1.0 mi NNE 8.1 mph - 0.00 in Snow Light Snow
4:47 PM 28.9 °F 22.8 °F 25.0 °F 85% 29.66 in 1.0 mi NE 5.8 mph - 0.00 in Snow Light Snow
4:54 PM 28.9 °F 22.8 °F 25.0 °F 85% 29.68 in 1.2 mi NNE 5.8 mph - 0.00 in Snow Light Snow
5:22 PM 28.9 °F 21.9 °F 25.0 °F 85% 29.68 in 3.0 mi NNE 6.9 mph - 0.00 in Snow Light Snow
5:31 PM 28.9 °F 21.9 °F 26.1 °F 89% 29.68 in 2.5 mi NNE 6.9 mph - 0.00 in Snow Light Snow
5:40 PM 28.9 °F 22.8 °F 26.1 °F 89% 29.68 in 1.5 mi NNE 5.8 mph - 0.00 in Snow Light Snow
5:54 PM 28.0 °F 24.2 °F 26.1 °F 92% 29.71 in 2.0 mi NNE 3.5 mph - 0.01 in Snow Light Snow
6:05 PM 28.0 °F 19.3 °F 26.1 °F 92% 29.70 in 1.8 mi NNE 9.2 mph - 0.00 in Snow Light Snow
6:13 PM 28.0 °F 20.0 °F 25.0 °F 88% 29.71 in 2.5 mi NNE 8.1 mph - 0.00 in Snow Light Snow
6:18 PM 28.0 °F 18.6 °F 24.1 °F 85% 29.71 in 3.0 mi NNE 10.4 mph - 0.00 in Snow Light Snow
6:54 PM 28.0 °F 21.7 °F 24.1 °F 85% 29.75 in 9.0 mi NNE 5.8 mph - 0.00 in   Overcast
7:54 PM 27.0 °F 23.0 °F 24.1 °F 89% 29.78 in 10.0 mi North 3.5 mph - N/A   Overcast
8:03 PM 27.0 °F 23.0 °F 24.1 °F 89% 29.77 in 10.0 mi NNW 3.5 mph - N/A   Overcast
8:54 PM 27.0 °F 20.5 °F 24.1 °F 89% 29.83 in 9.0 mi North 5.8 mph - N/A   Overcast
9:54 PM 27.0 °F 23.0 °F 24.1 °F 89% 29.87 in 9.0 mi NNE 3.5 mph - N/A   Overcast
10:08 PM 26.1 °F 20.5 °F 21.9 °F 84% 29.87 in 9.0 mi North 4.6 mph - N/A   Overcast
10:46 PM 25.0 °F 19.3 °F 21.0 °F 85% 29.91 in 10.0 mi NNE 4.6 mph - N/A   Scattered Clouds
10:54 PM 24.1 °F 19.7 °F 21.0 °F 88% 29.94 in 6.0 mi NNW 3.5 mph - N/A   Mostly Cloudy
11:54 PM 24.1 °F 19.7 °F 21.0 °F 88% 29.98 in 10.0 mi NNE 3.5 mph - N/A   Overcast